GFSCGP_con_mucape_090.txt.gz
CAPE
0 0 0 0 0 0 0 0 0 0 0 0 0 0 0 0 0 23 207 328 395 428 390 373 329 362 396 528 857 889 984 1009 976 814 832 953 1067 1125 1151 749 732 837 804 686
0 0 0 0 0 0 0 0 0 0 0 0 0 0 0 0 0 0 44 226 327 349 389 437 385 457 482 477 571 740 841 928 985 958 901 958 1068 1079 1120 943 751 511 440 468
0 0 0 0 0 0 0 0 0 0 0 0 0 0 0 0 0 0 81 174 225 298 310 402 411 516 544 564 748 759 771 863 953 1030 1021 1063 1129 1122 1100 917 779 557 344 484
0 0 0 0 15 38 12 23 3 0 0 0 0 0 0 0 0 0 0 215 322 280 233 313 454 521 574 605 736 884 850 904 983 1127 1079 1060 1101 1127 1050 983 1020 877 811 701
0 0 0 7 17 25 0 91 18 0 0 0 0 0 0 0 0 0 0 0 0 4 135 226 392 521 590 644 742 867 934 976 1039 1168 1112 1099 1143 1256 1256 1228 1175 964 649 930
0 0 0 0 1 37 14 60 49 3 0 0 0 0 0 0 0 0 0 0 0 0 10 160 232 428 571 683 725 836 1001 1180 1349 1278 1224 1128 1138 1200 1237 1103 682 886 461 875
0 0 0 0 0 15 19 32 19 0 0 0 0 0 0 0 0 0 0 0 0 0 0 44 209 383 674 701 865 991 1213 1514 1478 1381 1391 1421 1526 1358 996 673 535 580 827 846
0 0 12 18 1 10 24 23 30 1 0 0 0 0 0 0 0 0 0 0 0 0 1 150 253 688 816 871 1018 1247 1521 1693 1587 1598 1596 1689 1711 1466 718 227 279 296 867 968
0 0 31 4 2 0 3 32 5 5 0 0 0 0 0 0 0 0 54 20 0 0 142 399 422 935 1031 1150 1299 1593 1852 1791 1746 1840 1823 1890 1671 1128 199 43 27 545 1082 1057
0 0 41 77 73 11 0 0 54 15 0 0 0 0 0 0 0 538 1694 385 448 417 601 982 1425 1557 1534 1646 1757 2002 1940 1832 1984 1993 2146 1980 1568 305 92 63 196 1024 1227 953
15 62 81 85 27 9 4 0 0 0 6 0 0 0 0 0 294 830 2768 2599 2140 2115 2258 2425 2526 2207 2018 2041 1988 1977 2000 1992 2333 2483 2143 1590 434 233 69 129 529 1453 1276 943
0 89 134 141 193 155 155 0 0 9 1 11 1 0 0 448 658 2401 2865 2392 2127 2043 1959 1923 2100 2080 2114 2223 2115 2054 2031 2361 2374 2094 1977 940 304 204 245 787 1432 1384 1181 953
0 18 29 51 118 150 164 228 20 0 0 12 4 0 112 1399 2159 2716 2690 2764 2470 2207 2144 2154 2154 2187 2415 2345 2258 2180 2195 2270 2114 2092 1898 1320 857 1090 1473 1762 1734 1300 1103 743
0 0 1 3 53 43 71 270 698 89 0 1 0 0 21 461 2276 2473 2513 2419 2689 2650 2280 2308 2314 2324 2314 2374 2370 2272 2087 1666 1829 2124 1602 1161 1525 1742 1688 1864 1527 1198 941 658
0 0 0 18 27 66 518 594 934 478 0 1 2 132 233 736 1577 2127 2324 1906 2198 2221 2612 2332 2316 2215 2527 2545 2445 2178 1467 1653 1680 1587 1741 1136 1405 1878 1901 1764 1320 1065 858 672
0 0 0 23 37 6 5 313 802 846 831 715 747 781 1076 1188 1467 1777 1753 1660 1374 1679 2305 2434 2063 1396 1516 2113 1645 924 1491 1390 1405 1577 1701 1180 1622 2069 1877 1712 1458 1196 969 792
0 0 0 5 10 0 371 491 398 681 846 857 660 940 1427 1050 1542 1566 1430 1224 1121 1202 1381 1574 1265 842 748 1093 1613 1592 1284 1135 1457 1576 1458 1159 1904 1979 1889 1795 1609 1428 1139 777
0 0 0 0 0 0 364 352 304 380 753 1126 1210 1268 1318 1127 1227 1072 1033 1031 934 694 565 611 456 148 1 29 1166 1589 1787 1612 1650 1726 1715 1642 1684 1909 1901 1880 1603 1569 1416 1162
59 0 0 0 0 8 617 254 614 424 386 1060 1413 1397 987 965 853 750 650 524 536 498 355 179 215 249 337 13 19 1179 1404 1504 1666 1864 2105 2020 1766 1738 1978 1984 1788 1543 1558 1315
78 14 0 0 12 17 405 522 813 515 100 457 1152 858 857 800 376 128 391 138 164 225 274 145 166 91 11 11 68 521 979 1709 2003 2451 2268 2236 2274 2123 2127 1967 1806 1620 1505 1387
92 104 0 7 6 207 466 767 819 134 41 353 500 684 672 533 252 212 693 643 233 34 183 86 110 161 112 77 138 546 1013 1485 2141 2354 2135 2176 1965 1558 1439 1543 1409 1116 955 944
27 22 39 59 229 312 243 759 454 111 204 81 84 51 55 10 420 829 712 1251 564 571 451 122 80 213 76 55 201 237 476 696 1337 1437 1377 1439 1129 741 579 534 567 189 175 510
36 18 12 0 1 26 135 29 171 313 165 278 227 15 0 411 613 598 419 436 416 315 288 188 139 106 31 7 42 26 4 0 1 1 0 0 0 0 4 31 112 209 464 255
1 49 38 18 4 11 98 133 98 90 190 452 394 73 281 462 412 185 18 3 6 2 7 0 0 0 0 0 0 0 0 0 0 0 0 0 0 0 0 0 3 5 3 100
3 19 7 1 0 8 25 0 0 0 0 1 377 223 311 220 78 31 22 38 9 4 0 0 0 0 0 0 0 0 0 0 0 0 0 0 0 0 0 0 0 0 1 6
47 19 0 3 7 26 0 6 146 0 0 5 8 24 7 95 73 42 4 24 28 11 0 0 0 0 0 0 0 0 0 0 0 0 0 0 0 0 0 0 1 2 2 20

GFSCGP_con_mucape_096.txt.gz
CAPE
0 0 0 0 0 0 0 0 0 0 0 0 0 0 0 0 0 0 0 0 0 913 1227 1635 1549 1446 1469 1873 2271 2553 2573 3168 2449 2210 2050 1605 1198 1437 1817 1857 2083 2367 2156 2139
0 0 0 0 0 0 0 0 0 0 0 0 0 0 0 0 0 0 0 0 0 701 1204 1584 1765 1754 1644 1939 2370 2863 3044 3236 3001 2547 2898 2118 1718 1483 1861 2071 2501 2114 2038 2348
0 0 0 0 0 0 0 0 0 0 0 7 0 0 0 0 0 0 0 0 0 794 1361 1735 1674 1936 1852 2008 2420 3034 3518 3697 3449 3476 2687 2653 2462 2373 2291 2546 2571 2659 2231 2461
0 0 0 0 0 0 0 0 0 0 24 48 31 8 0 0 0 0 0 0 0 556 1355 1755 1866 1934 1959 2018 2415 3476 3964 4131 3608 3895 3457 3744 2698 2538 2376 2450 2362 2405 2618 2449
0 0 0 0 0 0 0 0 0 56 121 130 89 82 5 0 0 0 0 0 0 302 1058 1516 2022 1974 1927 2005 2208 3517 3905 4501 4499 4391 3972 3334 3381 2387 2306 2762 2536 2927 2861 2413
0 0 0 0 0 0 0 0 73 147 189 222 203 149 95 16 0 0 0 2 0 0 80 1029 1535 2118 2211 2003 1997 2573 3704 4546 4615 4153 3524 4427 4156 3400 2712 2718 2464 3399 2697 2559
0 0 0 0 0 0 0 34 146 184 199 216 202 154 107 51 0 0 0 6 0 0 0 44 940 1598 2176 2314 2495 2196 3776 4073 3713 3408 3598 3368 3612 3627 3430 3207 3932 1889 1622 1686
0 0 0 0 0 0 36 78 135 91 102 166 189 108 68 57 10 0 0 0 37 10 0 0 0 378 1731 2082 2969 2608 3237 3798 3503 3367 3856 3680 3619 3353 3195 3247 2921 1723 867 655
0 0 0 0 0 5 52 15 92 64 168 142 57 196 181 24 38 85 180 728 1623 2193 2027 1634 894 142 1068 1955 2351 2613 3191 3629 3421 3377 3597 3694 3622 3555 3377 3100 3217 1878 1414 749
0 0 10 1 0 0 18 30 128 152 188 239 34 161 233 188 133 110 448 1719 2853 2807 2414 1612 1082 721 992 1799 2139 2527 2914 3332 3358 3374 3615 3665 3622 3693 3549 3567 2682 1605 1349 1838
0 0 26 88 90 122 115 72 48 104 158 267 299 174 217 265 219 587 1434 2751 3406 3168 2850 2053 1555 1564 1694 1840 2132 2540 2880 3257 3462 3781 3719 3786 3653 3750 3805 3148 2078 1558 1894 2256
0 0 0 72 119 108 206 252 203 300 289 267 236 168 171 312 569 2160 2342 3213 3316 2937 3080 2926 2543 2287 2060 2092 2423 2706 3063 3372 3485 3714 3880 3764 3815 3872 3414 2320 1665 1560 2139 2544
0 2 9 29 146 156 303 332 407 709 812 584 307 229 301 1198 1518 2779 2940 3504 3482 2886 2400 3146 2978 2963 2839 2900 3043 3146 3415 3470 3507 3765 3813 3736 3772 3318 2396 1596 1461 1651 2448 2638
0 1 27 58 101 125 194 331 581 781 632 512 620 340 248 1275 1915 2240 2678 2651 3377 3258 2641 2934 3132 3645 3078 3155 3162 3235 3289 3302 3484 3516 3621 3585 3387 2582 1953 1735 1233 1809 2738 2465
3 0 9 62 69 144 196 219 206 440 614 844 603 601 551 1728 1627 1780 2282 2133 2552 3007 3024 3143 2576 2376 2596 2672 2481 2630 2845 2866 3041 2768 2739 2098 2025 1830 1861 2133 2886 3057 2764 2115
0 1 0 5 82 101 158 134 177 387 489 660 866 953 1576 1414 1757 1900 2298 2384 2398 2288 2440 2318 2336 1835 2554 2314 1911 2233 2502 2377 2302 1914 2457 2538 2522 2372 2544 2917 3256 3024 2624 2234
0 1 0 8 129 181 213 185 477 628 685 1033 1133 1612 1581 1619 1615 1498 1471 1508 1694 1681 1641 1156 1654 1594 1278 1180 1250 1733 1934 1655 1233 1829 2546 2891 2699 2397 2465 2823 3043 2959 2743 2444
97 70 25 0 149 245 386 761 514 642 921 1089 1238 1400 1265 1108 1053 1006 1089 1104 1119 1076 1118 1013 846 949 820 743 607 585 388 820 831 1590 2472 2719 2761 2451 2736 2849 2796 3100 2908 2630
50 81 80 208 229 198 194 975 922 505 722 758 1015 1192 855 1288 1064 1275 1013 897 982 1205 1010 994 752 628 683 543 513 666 554 345 536 285 530 2582 2649 2566 2949 3048 3196 3237 2962 2872
214 319 542 373 318 219 1122 823 841 951 555 409 667 873 805 1064 1523 1486 1332 962 696 987 984 875 781 729 515 579 592 556 502 392 203 263 523 1296 2477 2350 2596 2714 2241 2563 2586 2448
365 556 588 525 349 687 658 884 913 249 363 359 390 611 761 707 1097 1293 1118 1232 970 882 752 592 370 403 452 470 451 227 90 16 45 89 18 261 722 850 998 1191 1369 1544 1700 1533
363 455 453 413 420 331 356 788 1001 637 466 582 649 979 967 1021 870 1060 931 870 643 574 542 590 509 251 104 242 309 23 9 3 2 0 0 0 81 101 295 682 957 764 754 759
278 320 396 406 378 450 546 769 553 583 452 444 765 951 974 958 914 1040 882 862 942 568 303 113 93 2 0 2 24 22 37 1 3 7 1 13 39 55 123 164 145 230 342 312
79 212 177 228 505 500 516 633 556 437 481 704 920 1111 915 851 727 622 592 441 518 113 155 16 21 13 10 2 0 0 0 5 6 12 19 17 13 24 13 2 4 6 12 47
139 85 2 0 381 605 566 572 387 276 572 877 944 887 559 317 296 117 202 190 122 39 21 18 26 17 17 15 13 6 4 1 0 0 0 2 1 3 5 13 4 6 6 0
11 63 53 1 452 789 752 725 417 389 587 477 321 27 51 157 164 196 106 14 11 1 18 17 57 25 6 5 1 3 26 16 53 59 8 0 0 1 4 5 4 0 0 0

GFSCGP_con_mucape_099.txt.gz
CAPE
0 0 0 0 0 0 0 0 0 0 0 0 0 0 0 0 0 0 0 0 0 0 26 1429 1626 1438 1434 1578 2992 3695 3774 4090 3405 2655 2361 2046 1410 1330 1246 1680 2876 3147 2358 1938
0 0 0 0 0 0 0 0 0 0 0 0 0 0 0 0 0 0 0 0 0 0 10 1176 1875 1788 1555 2087 3322 4169 4178 4371 3846 3029 3043 2398 2200 1105 1110 1833 2947 2313 2174 2491
0 0 0 0 0 0 0 0 0 0 0 0 0 0 4 0 0 0 0 0 0 0 8 1280 2209 2527 1728 2572 3536 4014 4497 4555 4052 3497 3424 3656 2742 2487 1543 1738 2102 2876 2340 2638
0 0 0 0 0 0 0 0 0 0 0 0 1 22 29 31 47 10 0 0 0 0 0 1171 2241 2485 2151 2141 2803 4086 4647 4736 4471 4439 3319 3579 2538 2119 1876 2046 2260 2558 2771 2715
0 0 0 0 0 0 0 0 0 0 0 1 11 81 57 67 89 46 2 0 0 0 7 1192 2306 2458 2397 2254 2916 3809 4782 4848 4690 4516 3649 3491 3346 2332 2243 2114 3507 3933 3009 2194
0 0 0 0 0 0 0 0 0 0 6 98 154 232 169 183 84 91 40 0 0 2 151 1069 2140 2370 2889 2536 2763 3452 4884 4867 4987 4905 4680 4411 4044 3534 2368 2738 2436 3034 2983 2786
0 0 0 0 0 0 0 0 2 53 82 89 74 65 198 182 96 33 50 58 78 66 38 811 1229 2393 2519 3009 3208 3650 4841 4890 4980 4916 4621 4925 4900 4747 4852 4537 4316 2887 2146 3407
0 0 0 0 0 0 0 1 11 55 81 135 92 137 172 154 140 47 51 54 38 28 23 7 397 1619 2456 2455 3580 3728 4712 4937 4978 4827 4865 4815 4997 3762 3568 4068 2494 2196 2024 1446
0 0 0 0 0 0 0 10 27 23 127 171 118 215 140 27 174 71 173 255 1023 1717 2031 1900 1331 599 2012 2934 3463 3624 4648 4924 4995 4745 4870 4929 4961 4710 3883 4778 4204 2928 2365 1317
0 0 0 9 0 0 0 10 51 107 127 288 245 38 217 387 121 235 37 690 1811 2297 2460 2509 2135 1567 1270 1374 2844 3567 3788 4736 4445 3942 4641 4593 4605 4565 4705 4806 4229 3086 2157 1449
0 0 0 2 51 53 7 57 169 162 108 158 123 96 85 100 270 367 193 967 2734 3196 3227 3129 2429 1705 1104 670 1979 2997 3721 4102 4407 4383 4478 4757 4473 4553 4357 3903 3771 2433 2234 2231
0 0 0 0 3 40 19 168 221 251 279 193 297 218 145 83 58 737 1486 2095 3469 3485 3370 3662 3306 2491 1972 1520 1946 2385 3663 4046 4462 4467 4696 4423 4249 4114 3980 4195 3604 2411 1986 2231
0 0 1 10 45 121 40 19 25 230 315 460 197 441 239 0 717 2073 2337 2647 3260 3290 3257 3211 3205 3568 2368 2198 2317 2612 3209 3328 3548 4352 3987 3898 3925 3917 4481 3822 3025 2544 2308 2366
0 0 1 8 14 13 79 27 38 173 418 404 306 294 225 300 330 1634 2281 2858 2975 3535 2939 2584 2405 2752 2903 3024 3119 3399 3534 3290 3439 3490 3509 4108 3753 4054 3889 3233 2656 2024 2508 2605
1 20 27 6 1 5 77 74 90 185 213 255 335 155 195 714 1646 2188 2695 2816 2460 2617 1973 2253 2129 1737 2082 2894 2666 2685 2653 2790 2868 3566 3464 4214 4195 3967 3072 2186 1842 1935 2218 2530
2 5 17 7 0 7 43 81 120 184 193 195 234 392 1623 2059 2045 1895 1881 2050 2038 1678 1676 1744 1930 1742 1808 1794 1962 2047 1991 1987 1788 2266 2042 2602 2438 2283 2463 2543 2115 3449 3087 2406
3 3 10 12 7 10 78 154 204 289 302 405 588 1066 1601 1839 1730 1602 1443 1508 1414 1380 1229 1073 1707 848 1412 1111 1076 1113 1267 1486 1100 629 44 433 1636 1644 2857 3266 3188 3058 3471 3234
3 23 122 90 82 31 25 259 389 275 376 773 971 1363 1498 1538 1351 1322 1329 1240 1476 1364 1080 994 880 1046 589 161 163 171 280 528 971 1349 1531 558 1155 2149 3317 3430 3233 3587 3308 3372
144 205 226 203 186 118 101 633 525 604 1032 985 994 1240 1196 1136 1037 1264 1136 1173 1369 1118 1271 1133 1176 693 526 619 746 628 555 443 459 832 815 1447 1791 2232 2780 2758 2951 3240 3036 2795
245 403 440 433 399 412 841 691 816 792 683 651 627 756 1010 1085 1014 728 968 1225 1300 1221 940 916 1062 689 672 872 629 575 388 436 450 278 312 417 601 1851 2247 2528 3031 3613 2927 2711
279 469 502 551 401 389 456 503 874 515 789 355 442 466 843 919 1019 1196 1039 1157 911 981 883 830 821 510 687 844 577 271 206 135 67 112 105 19 148 412 1219 1246 2217 2212 2727 2324
297 487 572 519 300 322 228 694 1026 1157 741 652 657 611 560 988 1100 1102 1060 1242 890 924 868 754 710 665 629 530 294 133 16 8 0 6 5 8 6 21 52 39 1 288 1263 1252
358 332 565 560 366 642 400 691 746 936 865 523 852 822 875 934 1001 1064 1145 783 574 756 559 440 406 404 322 322 363 109 17 9 4 26 22 4 7 45 73 106 14 117 677 412
64 164 287 283 274 394 630 853 808 663 743 881 862 755 688 736 775 605 777 774 779 346 373 232 196 118 99 107 44 47 56 36 12 50 61 63 89 77 228 145 96 189 147 116
113 268 321 250 41 8 591 650 521 410 747 870 776 683 433 286 407 418 408 372 289 302 174 214 121 102 98 68 58 58 65 64 58 46 26 14 65 227 259 217 101 94 66 13
72 276 190 162 44 490 594 643 351 388 521 417 165 6 5 71 59 86 188 75 14 1 11 17 56 70 94 62 35 33 38 56 106 127 33 11 13 51 111 297 121 9 0 0

GFSCGP_con_mucape_102.txt.gz
CAPE
0 0 0 0 0 0 0 0 0 0 0 0 0 0 0 0 0 0 0 52 76 48 30 1659 1910 1657 1582 2403 2913 3028 3119 3334 2991 2746 2335 2342 1827 1704 1537 1626 2296 2709 2374 2071
0 0 0 0 0 0 0 0 0 0 0 0 0 0 0 0 0 0 0 0 0 0 3 756 2207 1885 1747 2325 2883 3105 3198 3406 3140 2819 2513 2432 2040 1735 1570 1547 2950 2545 2520 2588
0 0 0 0 0 0 0 0 0 0 0 0 0 0 0 0 0 1 0 0 0 0 0 378 2398 2067 1948 2077 2884 3116 3250 3389 3345 2969 2843 2812 2615 2290 1620 1652 3073 2935 2585 2687
0 0 0 0 0 0 0 0 0 0 0 0 0 0 0 0 19 41 73 18 0 0 0 250 2566 2389 2180 2263 2818 3291 3441 3676 3508 3318 2927 2864 2518 1880 1690 1563 2127 2378 3043 2713
0 0 0 0 0 0 0 0 0 0 0 0 0 0 1 95 256 244 6 71 3 11 0 24 2639 2601 2310 2487 2701 3405 3731 3853 3623 3382 3149 3036 2573 2335 2140 1880 2244 3324 2854 2587
0 0 0 0 0 0 0 0 0 0 0 0 10 24 23 124 177 116 54 40 110 42 18 48 2689 2938 2597 2564 2946 3424 3872 3975 4003 3390 3689 3261 3033 2947 2534 2456 3140 3043 2859 2708
0 0 0 0 0 0 0 0 0 1 2 15 21 59 194 203 85 68 35 1 54 133 367 272 2655 3052 2838 2620 2915 3169 3935 4209 4146 3764 3335 3723 3390 3367 4103 4300 3397 3120 2648 2912
0 0 0 0 0 0 0 0 0 8 5 0 37 31 104 160 20 111 88 34 72 350 1389 1070 2734 2901 2955 2850 2979 3141 3794 4180 4222 4141 3639 3987 3680 3373 3597 4209 3407 2887 2638 2884
0 0 0 0 0 0 0 0 1 8 1 18 19 78 141 73 27 5 14 34 114 1198 1346 1744 1456 2939 2930 2837 3052 3193 3452 4243 4243 4215 4220 3356 4210 4405 3496 4227 3908 2967 3373 2445
0 0 0 0 0 0 0 0 0 5 64 49 65 61 134 182 276 181 232 144 43 864 1410 1882 1833 1337 2907 2709 2940 3089 3530 4267 4270 4191 4271 4038 4051 3934 4313 4344 3814 3395 3690 2915
0 0 0 0 0 7 28 59 15 3 82 61 257 122 95 301 741 740 432 98 22 13 295 476 3543 3136 1814 2236 2662 3149 3360 4313 4223 4215 4187 4211 3775 4332 4048 4462 3763 4163 2906 2603
0 0 0 0 0 0 4 75 30 31 231 117 158 180 99 192 413 290 104 281 0 2 603 2953 3500 3359 3786 2231 2311 3185 3196 4250 4183 4272 4069 4061 4327 4307 4026 4407 4289 3862 2723 2533
0 0 0 0 0 0 0 2 25 49 32 93 136 196 91 152 83 397 256 112 1070 1708 2323 2608 2385 2744 3095 3470 3315 3172 3458 3813 4047 4285 3892 3631 4352 4350 4229 4253 4212 3515 2695 2725
0 0 0 0 0 0 0 2 22 39 35 86 157 277 310 66 25 150 959 1342 1846 1866 1700 1637 2028 2264 2397 2571 2728 2870 2799 3167 3519 3521 3352 3491 4187 4266 4328 4267 4160 3219 2512 2636
0 3 2 2 4 2 0 0 0 63 122 224 153 345 412 56 14 0 80 715 1149 1481 783 742 959 1279 1310 1844 2169 2054 2335 2198 1942 2871 2684 2677 2897 3102 3653 3907 3254 2677 2483 2654
0 4 0 0 0 0 0 0 0 0 23 59 326 716 312 534 644 300 241 523 911 1304 690 470 72 145 1044 697 960 941 852 976 1235 1241 1124 1116 1116 1116 175 2071 2134 2065 2728 3008
0 5 2 0 0 1 0 0 5 32 114 278 288 753 683 1241 1170 1183 1114 1007 898 1200 1038 629 444 583 637 251 367 328 343 537 653 532 72 623 539 328 0 395 921 1774 2530 3419
34 259 42 4 9 4 2 186 236 171 173 568 595 865 1090 1150 1098 1124 939 914 803 1081 1005 854 1044 983 438 261 435 397 365 296 203 323 318 47 1 17 28 3 0 1150 1708 2648
18 108 104 88 77 32 20 544 314 46 13 642 707 593 773 848 929 338 402 643 849 1055 1164 1312 1054 966 933 1072 640 452 483 322 160 244 301 330 239 187 116 31 455 1475 1593 1657
125 225 42 49 99 86 301 111 347 130 327 383 278 260 365 785 524 104 38 207 844 960 923 870 661 746 839 1077 796 603 216 201 253 176 69 303 601 506 408 701 1010 1083 1038 1077
220 258 217 34 70 205 77 35 205 388 493 191 151 228 244 332 709 130 1 650 802 1075 905 859 653 631 742 437 533 271 252 139 177 142 57 64 78 95 125 431 579 683 664 905
281 278 339 465 186 154 76 5 149 749 873 704 781 665 415 135 368 355 482 737 700 763 655 635 606 498 528 603 417 100 25 42 79 69 61 44 13 20 62 37 44 331 370 315
174 386 324 287 532 399 377 636 877 646 517 570 506 833 677 553 623 408 567 436 641 407 532 446 306 497 412 354 394 127 167 12 2 13 42 48 48 92 72 39 44 147 82 0
194 294 379 270 490 226 36 678 909 500 707 659 967 757 755 655 710 443 407 369 591 417 339 171 179 275 437 463 306 313 213 87 42 77 43 41 65 54 77 23 12 40 44 28
159 235 330 336 170 53 404 523 738 542 580 857 888 599 389 438 559 584 419 457 370 396 334 188 157 180 172 218 126 113 333 327 309 236 154 86 8 74 158 146 35 59 93 1
204 152 221 332 344 440 649 614 627 561 486 316 198 92 10 21 160 60 49 56 39 53 14 6 13 61 64 194 255 261 333 286 250 175 76 5 0 17 61 149 275 77 89 20